Weather reports worldwide

Advertisment
Almeria, Spain (8487): temperature & dewpoint: 16.09.2018 23:00:00 - 22.09.2018 23:00:00 (CEST)Almeria, Spain (8487): wind speed: 16.09.2018 23:00:00 - 22.09.2018 23:00:00 (CEST)Almeria, Spain (8487): wind direction: 16.09.2018 23:00:00 - 22.09.2018 23:00:00 (CEST)Almeria, Spain (8487): reduced air pressure: 16.09.2018 23:00:00 - 22.09.2018 23:00:00 (CEST)Almeria, Spain (8487): visibility: 16.09.2018 23:00:00 - 22.09.2018 23:00:00 (CEST)
Date & Time tt [°C] td [°C] ff [km/h] ff [kn] dd ppp [hPa] vv [km]
22.09.2018 23:00:00 25,4 15,7 11 6 N 1021,9 -
22.09.2018 22:00:00 25,0 16,4 8 4 N 1021,8 -
22.09.2018 21:00:00 26,1 16,1 5 3 NE 1021,4 -
22.09.2018 20:00:00 27,0 20,8 8 4 WSW 1021,2 50
22.09.2018 19:00:00 29,5 21,4 9 5 SSW 1020,7 -
22.09.2018 18:00:00 28,5 22,7 15 8 S 1020,8 -
22.09.2018 17:00:00 28,9 21,8 15 8 S 1021,0 50
22.09.2018 16:00:00 29,4 22,2 15 8 SSW 1021,2 -
22.09.2018 15:00:00 29,0 23,1 15 8 S 1021,7 -
22.09.2018 14:00:00 28,3 23,8 16 9 SSW 1022,2 45
22.09.2018 13:00:00 28,0 22,4 15 8 SSW 1022,3 -
22.09.2018 12:00:00 30,4 19,5 13 7 E 1022,4 -
22.09.2018 11:00:00 27,8 20,5 11 6 ENE 1022,2 45
22.09.2018 10:00:00 25,9 21,3 11 6 NE 1021,8 -
22.09.2018 09:00:00 23,1 19,7 5 3 N 1021,3 -
22.09.2018 08:00:00 21,3 19,2 4 2 N 1020,8 40
22.09.2018 07:00:00 22,0 19,2 8 4 NNE 1020,3 -
22.09.2018 06:00:00 21,9 18,7 8 4 N 1019,9 -
22.09.2018 05:00:00 21,9 18,9 4 2 NNE 1019,6 40
22.09.2018 04:00:00 22,3 19,8 5 3 N 1019,6 -
22.09.2018 03:00:00 22,6 20,3 5 3 N 1019,7 -
22.09.2018 02:00:00 22,7 20,0 9 5 NE 1019,7 -
22.09.2018 01:00:00 23,0 20,8 5 3 NNE 1019,4 -
22.09.2018 00:00:00 23,4 21,5 5 3 NNE 1019,3 -
21.09.2018 23:00:00 23,8 21,7 4 2 NE 1019,2 30
21.09.2018 22:00:00 24,4 22,3 5 3 NNW 1018,9 -
21.09.2018 21:00:00 25,0 22,5 5 3 SW 1018,2 -
21.09.2018 20:00:00 25,4 22,5 9 5 SW 1017,8 45
21.09.2018 19:00:00 26,5 22,3 9 5 SSW 1017,7 -
21.09.2018 18:00:00 26,9 21,9 13 7 SSW 1017,6 -
21.09.2018 17:00:00 26,9 22,3 13 7 SSW 1017,9 30
21.09.2018 16:00:00 27,3 22,7 15 8 S 1018,3 -
21.09.2018 15:00:00 27,2 22,6 13 7 S 1018,8 -
21.09.2018 14:00:00 27,5 22,0 13 7 S 1019,0 35
21.09.2018 13:00:00 27,1 22,2 11 6 S 1019,3 -
21.09.2018 12:00:00 26,9 22,3 9 5 S 1019,4 -
21.09.2018 11:00:00 26,5 21,9 9 5 S 1019,1 30
21.09.2018 10:00:00 25,8 21,0 4 2 W 1018,4 -
21.09.2018 09:00:00 23,2 20,3 5 3 NW 1018,1 -
21.09.2018 08:00:00 22,3 20,4 9 5 NW 1017,7 20
21.09.2018 07:00:00 22,4 20,5 11 6 NNW 1017,2 -
21.09.2018 06:00:00 23,0 20,9 4 2 N 1017,1 -
21.09.2018 05:00:00 23,6 21,9 5 3 NW 1017,2 30
21.09.2018 04:00:00 24,1 22,0 4 2 SW 1017,6 -
21.09.2018 03:00:00 24,6 21,9 8 4 SW 1018,1 -
21.09.2018 02:00:00 24,9 22,4 5 3 SW 1018,2 -
21.09.2018 01:00:00 24,9 22,6 8 4 SW 1018,5 -
21.09.2018 00:00:00 24,5 22,7 9 5 WSW 1018,7 -
20.09.2018 23:00:00 24,3 22,6 8 4 SSW 1018,5 -
20.09.2018 22:00:00 24,5 22,4 0 0 N 1018,0 -
20.09.2018 21:00:00 24,9 22,6 2 1 SW 1017,7 -
20.09.2018 20:00:00 25,6 22,6 5 3 SSW 1017,9 35
20.09.2018 19:00:00 26,9 22,9 9 5 SSW 1017,9 -
20.09.2018 18:00:00 27,0 22,9 13 7 SSW 1018,2 -
20.09.2018 17:00:00 28,1 23,1 16 9 S 1018,4 40
20.09.2018 16:00:00 28,5 23,2 18 10 S 1018,7 -
20.09.2018 15:00:00 28,6 23,4 18 10 S 1019,0 -
20.09.2018 14:00:00 28,7 23,1 18 10 S 1019,6 30
20.09.2018 13:00:00 28,5 22,8 15 8 SSE 1020,2 -
20.09.2018 12:00:00 27,5 22,7 13 7 S 1020,3 -
20.09.2018 11:00:00 26,9 22,1 9 5 S 1020,3 30
20.09.2018 10:00:00 26,8 21,6 4 2 N 1020,1 -
20.09.2018 09:00:00 24,1 20,9 8 4 NNE 1020,1 -
20.09.2018 08:00:00 23,0 20,7 11 6 NE 1019,7 30
20.09.2018 07:00:00 22,7 21,2 5 3 NW 1019,4 -
20.09.2018 06:00:00 23,1 21,4 5 3 NNE 1019,3 -
20.09.2018 05:00:00 23,4 21,8 5 3 E 1019,4 30
20.09.2018 04:00:00 24,2 22,5 9 5 NNW 1019,7 -
20.09.2018 03:00:00 23,8 22,2 4 2 NNE 1020,4 -
20.09.2018 02:00:00 24,7 22,2 4 2 NE 1020,8 -
20.09.2018 01:00:00 24,9 22,5 5 3 NNE 1020,9 -
20.09.2018 00:00:00 24,9 22,6 9 5 ENE 1020,7 -
19.09.2018 23:00:00 25,1 22,4 5 3 ENE 1020,7 -
19.09.2018 22:00:00 25,5 22,4 5 3 E 1020,2 -
19.09.2018 21:00:00 25,8 23,1 4 2 E 1019,4 -
19.09.2018 20:00:00 25,8 23,7 9 5 SW 1019,2 25
19.09.2018 19:00:00 26,4 23,3 4 2 SW 1018,9 -
19.09.2018 18:00:00 26,1 23,2 0 0 N 1019,0 -
19.09.2018 17:00:00 26,3 23,7 8 4 SSW 1019,2 25
19.09.2018 16:00:00 27,1 23,8 13 7 SSW 1019,8 -
19.09.2018 15:00:00 28,7 23,9 13 7 S 1019,7 -
19.09.2018 14:00:00 28,3 23,4 15 8 SSW 1019,8 20
19.09.2018 13:00:00 28,1 23,3 13 7 SSW 1020,0 -
19.09.2018 12:00:00 28,1 22,6 13 7 SSW 1020,1 -
19.09.2018 11:00:00 27,3 22,0 9 5 SSW 1019,7 20
19.09.2018 10:00:00 27,0 21,7 4 2 E 1019,0 -
19.09.2018 09:00:00 24,4 20,9 9 5 NNE 1018,5 -
19.09.2018 08:00:00 22,9 20,6 9 5 NNW 1017,9 20
19.09.2018 07:00:00 23,0 20,9 11 6 NNW 1017,7 -
19.09.2018 06:00:00 23,2 21,3 9 5 NNW 1017,5 -
19.09.2018 05:00:00 23,2 22,0 5 3 NNW 1017,7 12
19.09.2018 04:00:00 23,5 22,1 5 3 NE 1018,1 -
19.09.2018 03:00:00 23,4 22,3 5 3 ENE 1018,1 -
19.09.2018 02:00:00 23,8 22,8 4 2 NNE 1018,0 -
19.09.2018 01:00:00 23,8 22,8 8 4 NE 1018,2 -
19.09.2018 00:00:00 24,0 22,6 9 5 E 1018,0 -
18.09.2018 23:00:00 24,4 22,2 8 4 E 1017,7 -
18.09.2018 22:00:00 24,9 22,2 8 4 WSW 1017,2 -
18.09.2018 21:00:00 25,1 23,5 16 9 SW 1016,2 -
18.09.2018 20:00:00 25,3 23,7 13 7 SW 1015,4 12
18.09.2018 19:00:00 26,5 23,8 18 10 SSW 1015,3 -
18.09.2018 18:00:00 27,4 23,9 18 10 SW 1015,2 -
18.09.2018 17:00:00 27,5 23,5 24 13 SSW 1015,2 13
18.09.2018 16:00:00 27,9 23,5 22 12 SSW 1015,4 -
18.09.2018 15:00:00 28,4 23,5 13 7 SSW 1015,4 -
18.09.2018 14:00:00 27,7 23,0 15 8 SW 1015,8 14
18.09.2018 13:00:00 28,0 22,8 13 7 S 1016,3 -
18.09.2018 12:00:00 27,7 22,5 9 5 S 1016,3 -
18.09.2018 11:00:00 27,8 22,6 8 4 SSE 1016,3 14
18.09.2018 10:00:00 25,5 22,5 0 0 N 1015,8 -
18.09.2018 09:00:00 24,1 19,0 8 4 NNW 1015,1 -
18.09.2018 08:00:00 23,5 17,7 13 7 NNW 1014,5 15
18.09.2018 07:00:00 23,0 18,5 11 6 NNW 1014,1 -
18.09.2018 06:00:00 23,2 19,8 11 6 NNW 1013,7 -
18.09.2018 05:00:00 23,9 19,4 8 4 NW 1013,7 20
18.09.2018 04:00:00 24,5 19,6 16 9 NNW 1013,5 -
18.09.2018 03:00:00 25,0 20,3 21 11 NW 1013,6 -
18.09.2018 02:00:00 25,9 20,5 18 10 NW 1014,1 -
18.09.2018 01:00:00 25,8 20,8 15 8 NNW 1014,3 -
18.09.2018 00:00:00 26,0 20,8 9 5 NNW 1014,4 -
17.09.2018 23:00:00 26,4 20,9 15 8 NW 1014,6 -
17.09.2018 22:00:00 26,4 20,5 5 3 NNE 1014,5 -
17.09.2018 21:00:00 27,3 19,6 11 6 NNE 1013,9 -
17.09.2018 20:00:00 27,5 21,5 24 13 ENE 1013,5 50
17.09.2018 19:00:00 28,2 21,9 28 15 ENE 1013,7 -
17.09.2018 18:00:00 29,9 21,6 34 18 ENE 1013,5 -
17.09.2018 17:00:00 30,4 21,2 34 18 ENE 1014,1 50
17.09.2018 16:00:00 30,7 21,5 34 18 ENE 1014,7 -
17.09.2018 15:00:00 31,0 21,5 35 19 ENE 1015,5 -
17.09.2018 14:00:00 30,7 20,9 29 16 NE 1016,2 50
17.09.2018 13:00:00 30,3 21,3 26 14 NE 1017,1 -
17.09.2018 12:00:00 28,6 20,9 28 15 ENE 1017,6 -
17.09.2018 11:00:00 28,8 20,8 28 15 NE 1017,5 50
17.09.2018 10:00:00 27,4 19,5 15 8 NE 1017,4 -
17.09.2018 09:00:00 25,6 19,8 8 4 NNE 1017,2 -
17.09.2018 08:00:00 25,6 19,2 8 4 N 1016,8 50
17.09.2018 07:00:00 25,8 19,0 16 9 NW 1016,1 -
17.09.2018 06:00:00 25,3 19,2 16 9 NW 1015,8 -
17.09.2018 05:00:00 25,6 19,5 18 10 NW 1016,5 50
17.09.2018 04:00:00 24,8 20,7 9 5 NW 1017,3 -
17.09.2018 03:00:00 24,8 20,7 13 7 NNW 1018,1 -
17.09.2018 02:00:00 24,5 21,4 8 4 N 1018,9 -
17.09.2018 01:00:00 24,4 21,7 8 4 ENE 1019,3 -
17.09.2018 00:00:00 25,2 20,7 5 3 NNE 1018,4 -
16.09.2018 23:00:00 25,5 21,4 9 5 E 1018,6 -

tt = temperature
td = dewpoint
ff = wind speed
dd = wind direction
ppp = reduced air pressure
vv = visibility

Next stations